Weather in Novoihorivka

Ukraine / Kirovohrad Region     48°06′37″N   32°31′35″E
temp.,
°C
wind,
m/s
gust,
m/s
humid.,
%
clouds,
%
prec.,
mm/h
press.,
hPa
HPBL,
m
21 may, sat
sat2100:00+15ssw486435 0.0 1015119
03:00+14wsw4126513 0.0 1014198
06:00+13sw497183 0.0 1012163
09:00+20wsw61060100 0.0 1011470
12:00+25w81049100 0.0 10091446
15:00+27w81240100 0.0 10082708
18:00+18ssw3789100 4.4 1007204
21:00+18w51390100 6.4 1007496
22 may, sun
sun2200:00+16w489588 0.6 1007224
03:00+14nw61285100 0.6 1006456
06:00+12wnw61183100 0.0 1006490
09:00+15wnw7116257 0.0 10051127
12:00+18wnw91349100 0.0 10042309
15:00+17wnw9125611 0.4 10041724
18:00+14wnw9126394 0.3 10041400
21:00+11nw71072100 0.3 10051061
23 may, mon
mon2300:00+11nw61082100 0.1 1005815
03:00+10nnw6983100 0.1 1006726
06:00+9n5877100 0.0 1007952
09:00+12nne796285 0.0 10081347
12:00+13nne5752100 0.1 10081731
15:00+15nne5745100 0.1 10091630
18:00+15nne574596 0.0 10091925
21:00+12n356178 0.0 1011139
24 may, tue
tue2400:00+8nne22745 0.0 101220
03:00+7n33780 0.0 101322
06:00+7nnw23755 0.0 101343
09:00+14nnw34492 0.0 1014891
12:00+17nnw4539100 0.0 10142469
15:00+16n344282 0.0 10151791
18:00+16wnw2344100 0.0 10151096
21:00+12nw00534 0.0 101610
25 may, wed
wed2500:00+10e22610 0.0 101711
03:00+9s22650 0.0 101810
06:00+9wsw22680 0.0 101913
09:00+16sw23490 0.0 1019497
12:00+20sw44380 0.0 10191835
15:00+22sw56355 0.0 10172252
18:00+20sw7845100 0.0 10171135
21:00+15ssw6125269 0.0 1018371